Oelwein, IA

2:58 AM CDT on May 27, 2017 (GMT -0500)
Oelwein Municipal

Weather History for KOLZ - February, 2014

Change the Weather History Date:

Thursday, February 6, 2014

  Actual Average Record
Temperature  
Mean Temperature -5 °F -  
Max Temperature 3 °F 24 °F 46 °F (1970)
Min Temperature -13 °F 7 °F -23 °F (1982)
Degree Days  
Heating Degree Days 70    
Moisture  
Dew Point -11 °F    
Average Humidity 72    
Maximum Humidity 78    
Minimum Humidity 61    
Precipitation  
Precipitation 0.00 in - - ()
Sea Level Pressure  
Sea Level Pressure 30.41 in    
Wind  
Wind Speed 11 mph (West)    
Max Wind Speed 18 mph    
Max Gust Speed 21 mph    
Visibility 10 miles    
Events      
Averages and records for this station are not official NWS values.
T = Trace of Precipitation, MM = Missing Value Source: NWS Daily Summary

Daily Weather History Graph

Daily Weather History Graph

Search for Another Location

Airport or City:

Trip Planner

Search our weather history database for the weather conditions in past years. The results will help you decide how hot, cold, wet, or windy it might be!

Date:

Astronomy

Feb. 06, 2014 Rise Set
Actual Time 7:16 AM CST 5:27 PM CST
Civil Twilight 6:46 AM CST 5:57 PM CST
Nautical Twilight 6:13 AM CST 6:31 PM CST
Astronomical Twilight 5:40 AM CST 7:04 PM CST
Moon 10:59 AM CST (2/6) 12:32 AM CST (2/6)
Length of Visible Light 11h 10m
Length of Day
10h 11m
Waxing Crescent, 49% of the Moon is Illuminated
Feb 6
Waxing Crescent
Feb 6
First Quarter
Feb 14
Full
Feb 22
Last Quarter
Mar 1
New

Hourly Weather History & Observations

Time (CST) Temp. Windchill Dew Point Humidity Pressure Visibility Wind Dir Wind Speed Gust Speed Precip Events Conditions
12:15 AM -5.8 °F -24.4 °F -11.2 °F 77% 30.47 in 10.0 mi WNW 11.5 mph - N/A   Clear
12:35 AM -5.8 °F -24.4 °F -11.2 °F 77% 30.47 in 10.0 mi WNW 11.5 mph - N/A   Clear
12:55 AM -5.8 °F -23.4 °F -13.0 °F 71% 30.47 in 10.0 mi WNW 10.4 mph - N/A   Clear
1:15 AM -7.6 °F -26.6 °F -13.0 °F 77% 30.46 in 10.0 mi WNW 11.5 mph - N/A   Partly Cloudy
1:35 AM -7.6 °F -26.6 °F -13.0 °F 77% 30.46 in 10.0 mi WNW 11.5 mph - N/A   Clear
1:55 AM -7.6 °F -25.7 °F -13.0 °F 77% 30.46 in 10.0 mi WNW 10.4 mph - N/A   Partly Cloudy
2:15 AM -7.6 °F -25.7 °F -13.0 °F 77% 30.46 in 10.0 mi WNW 10.4 mph - N/A   Mostly Cloudy
2:35 AM -9.4 °F -27.9 °F -14.8 °F 77% 30.45 in 10.0 mi WNW 10.4 mph - N/A   Scattered Clouds
2:55 AM -9.4 °F -28.9 °F -14.8 °F 77% 30.45 in 10.0 mi WNW 11.5 mph - N/A   Clear
3:15 AM -9.4 °F -26.8 °F -14.8 °F 77% 30.45 in 10.0 mi WNW 9.2 mph - N/A   Clear
3:35 AM -9.4 °F -27.9 °F -14.8 °F 77% 30.45 in 10.0 mi WNW 10.4 mph - N/A   Clear
3:55 AM -9.4 °F -27.9 °F -14.8 °F 77% 30.45 in 10.0 mi WNW 10.4 mph - N/A   Clear
4:15 AM -9.4 °F -27.9 °F -14.8 °F 77% 30.45 in 10.0 mi WNW 10.4 mph - N/A   Clear
4:35 AM -9.4 °F -26.8 °F -14.8 °F 77% 30.45 in 10.0 mi WNW 9.2 mph - N/A   Clear
4:55 AM -9.4 °F -26.8 °F -16.6 °F 71% 30.45 in 10.0 mi WNW 9.2 mph - N/A   Clear
5:15 AM -9.4 °F -28.9 °F -16.6 °F 71% 30.45 in 10.0 mi WNW 11.5 mph - N/A   Clear
5:35 AM -9.4 °F -26.8 °F -16.6 °F 71% 30.45 in 10.0 mi WNW 9.2 mph - N/A   Clear
5:55 AM -9.4 °F -26.8 °F -16.6 °F 71% 30.44 in 10.0 mi WNW 9.2 mph - N/A   Clear
6:15 AM -9.4 °F -26.8 °F -16.6 °F 71% 30.44 in 10.0 mi West 9.2 mph - N/A   Clear
6:35 AM -11.2 °F -29.0 °F -18.4 °F 70% 30.44 in 10.0 mi West 9.2 mph - N/A   Clear
6:55 AM -11.2 °F -30.1 °F -18.4 °F 70% 30.44 in 10.0 mi West 10.4 mph - N/A   Clear
7:15 AM -11.2 °F -29.0 °F -18.4 °F 70% 30.44 in 10.0 mi West 9.2 mph - N/A   Partly Cloudy
7:35 AM -13.0 °F -30.0 °F -18.4 °F 77% 30.44 in 10.0 mi West 8.1 mph - N/A   Clear
7:55 AM -11.2 °F -30.1 °F -18.4 °F 70% 30.45 in 10.0 mi West 10.4 mph - N/A   Clear
8:15 AM -11.2 °F -29.0 °F -18.4 °F 70% 30.45 in 10.0 mi West 9.2 mph - N/A   Clear
8:35 AM -9.4 °F -27.9 °F -16.6 °F 71% 30.46 in 10.0 mi West 10.4 mph - N/A   Clear
8:55 AM -9.4 °F -27.9 °F -16.6 °F 71% 30.46 in 10.0 mi West 10.4 mph - N/A   Clear
9:15 AM -7.6 °F -25.7 °F -14.8 °F 71% 30.46 in 10.0 mi West 10.4 mph - N/A   Clear
9:35 AM -7.6 °F -26.6 °F -14.8 °F 71% 30.46 in 10.0 mi West 11.5 mph - N/A   Clear
9:55 AM -5.8 °F -24.4 °F -13.0 °F 71% 30.46 in 10.0 mi West 11.5 mph - N/A   Clear
10:15 AM -4.0 °F -23.0 °F -13.0 °F 65% 30.46 in 10.0 mi WNW 12.7 mph - N/A   Clear
10:35 AM -4.0 °F -23.7 °F -11.2 °F 71% 30.47 in 10.0 mi WNW 13.8 mph - N/A   Clear
10:55 AM -4.0 °F -21.2 °F -11.2 °F 71% 30.47 in 10.0 mi West 10.4 mph - N/A   Clear
11:15 AM -2.2 °F -22.2 °F -9.4 °F 71% 30.46 in 10.0 mi West 15.0 mph - N/A   Clear
11:35 AM -2.2 °F -22.2 °F -9.4 °F 71% 30.46 in 10.0 mi West 15.0 mph - N/A   Clear
11:55 AM -0.4 °F -19.2 °F -9.4 °F 66% 30.45 in 10.0 mi West 13.8 mph - N/A   Clear
12:15 PM -0.4 °F -21.2 °F -9.4 °F 66% 30.44 in 10.0 mi West 17.3 mph - N/A   Partly Cloudy
12:35 PM -0.4 °F -20.5 °F -9.4 °F 66% 30.43 in 10.0 mi West 16.1 mph - N/A   Partly Cloudy
12:55 PM 1.4 °F -17.6 °F -7.6 °F 66% 30.42 in 10.0 mi West 15.0 mph - N/A   Scattered Clouds
1:15 PM 1.4 °F -18.2 °F -7.6 °F 66% 30.41 in 10.0 mi WNW 16.1 mph - N/A   Partly Cloudy
1:35 PM 1.4 °F -19.4 °F -7.6 °F 66% 30.40 in 10.0 mi WNW 18.4 mph - N/A   Partly Cloudy
1:55 PM 1.4 °F -18.2 °F -7.6 °F 66% 30.39 in 10.0 mi WNW 16.1 mph - N/A   Clear
2:15 PM 1.4 °F -18.2 °F -7.6 °F 66% 30.39 in 10.0 mi WNW 16.1 mph - N/A   Partly Cloudy
2:35 PM 3.2 °F -15.9 °F -5.8 °F 66% 30.38 in 10.0 mi WNW 16.1 mph - N/A   Scattered Clouds
2:55 PM 3.2 °F -16.5 °F -7.6 °F 61% 30.37 in 10.0 mi WNW 17.3 mph - N/A   Partly Cloudy
3:15 PM 3.2 °F -15.3 °F -7.6 °F 61% 30.37 in 10.0 mi WNW 15.0 mph 20.7 mph N/A   Partly Cloudy
3:35 PM 3.2 °F -15.9 °F -7.6 °F 61% 30.36 in 10.0 mi WNW 16.1 mph - N/A   Mostly Cloudy
3:55 PM 3.2 °F -14.6 °F -7.6 °F 61% 30.36 in 10.0 mi WNW 13.8 mph - N/A   Mostly Cloudy
4:15 PM 3.2 °F -13.9 °F -5.8 °F 66% 30.36 in 10.0 mi West 12.7 mph - N/A   Scattered Clouds
4:35 PM 3.2 °F -13.9 °F -5.8 °F 66% 30.36 in 10.0 mi West 12.7 mph - N/A   Scattered Clouds
4:55 PM 1.4 °F -14.5 °F -5.8 °F 72% 30.36 in 10.0 mi West 10.4 mph - N/A   Scattered Clouds
5:15 PM 1.4 °F -13.5 °F -5.8 °F 72% 30.35 in 10.0 mi West 9.2 mph - N/A   Scattered Clouds
5:35 PM 1.4 °F -12.5 °F -7.6 °F 66% 30.35 in 10.0 mi WSW 8.1 mph - N/A   Partly Cloudy
5:55 PM 1.4 °F -14.5 °F -5.8 °F 72% 30.35 in 10.0 mi WSW 10.4 mph - N/A   Scattered Clouds
6:15 PM -0.4 °F -15.7 °F -5.8 °F 78% 30.35 in 10.0 mi WSW 9.2 mph - N/A   Partly Cloudy
6:35 PM -0.4 °F -15.7 °F -5.8 °F 78% 30.34 in 10.0 mi WSW 9.2 mph - N/A   Partly Cloudy
6:55 PM -0.4 °F -15.7 °F -7.6 °F 72% 30.34 in 10.0 mi WSW 9.2 mph - N/A   Mostly Cloudy
7:15 PM -0.4 °F -17.6 °F -7.6 °F 72% 30.34 in 10.0 mi West 11.5 mph - N/A   Mostly Cloudy
7:35 PM -0.4 °F -17.6 °F -7.6 °F 72% 30.34 in 10.0 mi WSW 11.5 mph - N/A   Scattered Clouds
7:55 PM -0.4 °F -15.7 °F -7.6 °F 72% 30.34 in 10.0 mi WSW 9.2 mph - N/A   Overcast
8:15 PM -0.4 °F -15.7 °F -7.6 °F 72% 30.33 in 10.0 mi West 9.2 mph - N/A   Overcast
8:35 PM -0.4 °F -15.7 °F -7.6 °F 72% 30.34 in 10.0 mi West 9.2 mph - N/A   Overcast
8:55 PM -0.4 °F -13.4 °F -5.8 °F 78% 30.34 in 10.0 mi WSW 6.9 mph - N/A   Overcast
9:15 PM -0.4 °F -14.7 °F -5.8 °F 78% 30.34 in 10.0 mi WSW 8.1 mph - N/A   Overcast
9:35 PM -0.4 °F -15.7 °F -5.8 °F 78% 30.34 in 10.0 mi WSW 9.2 mph - N/A   Overcast
9:55 PM -0.4 °F -16.7 °F -5.8 °F 78% 30.34 in 10.0 mi SW 10.4 mph - N/A   Overcast
10:15 PM 1.4 °F -14.5 °F -5.8 °F 72% 30.34 in 10.0 mi WSW 10.4 mph - N/A   Overcast
10:35 PM 1.4 °F -14.5 °F -5.8 °F 72% 30.34 in 10.0 mi WSW 10.4 mph - N/A   Overcast
10:55 PM -0.4 °F -16.7 °F -5.8 °F 78% 30.34 in 10.0 mi WSW 10.4 mph - N/A   Overcast
11:15 PM -0.4 °F -15.7 °F -7.6 °F 72% 30.33 in 10.0 mi WSW 9.2 mph - N/A   Mostly Cloudy
11:35 PM -2.2 °F -16.8 °F -7.6 °F 78% 30.33 in 10.0 mi WSW 8.1 mph - N/A   Mostly Cloudy
11:55 PM -2.2 °F -18.9 °F -7.6 °F 78% 30.33 in 10.0 mi WSW 10.4 mph - N/A   Overcast